Atlanta Fulton, GA

3:53 AM EDT on August 22, 2019 (GMT -0400)
Fulton County-Brown

Weather History for KFTY - July, 2019

Change the Weather History Date:

Monday, July 22, 2019

  Actual Average Record
Temperature  
Mean Temperature 83 °F 80 °F  
Max Temperature 92 °F 90 °F 95 °F (2010)
Min Temperature 73 °F 71 °F 64 °F (2001)
Cooling Degree Days 18 15  
Month to date cooling degree days 392 324  
Year to date cooling degree days 1103 874  
Since 1 June cooling degree days 737 674  
Growing Degree Days 32 (Base 50)    
Moisture  
Dew Point 68 °F    
Average Humidity 66    
Maximum Humidity 87    
Minimum Humidity 44    
Precipitation  
Precipitation 0.00 in 0.14 in 0.94 in (1988)
Month to date precipitation 0.70 3.99  
Year to date precipitation 27.19 29.61  
Sea Level Pressure  
Sea Level Pressure 29.97 in    
Wind  
Wind Speed 6 mph (SW)    
Max Wind Speed 15 mph    
Max Gust Speed 23 mph    
Visibility 10 miles    
Events      
T = Trace of Precipitation, MM = Missing Value Source: NWS Daily Summary

Daily Weather History Graph

Daily Weather History Graph

Search for Another Location

Airport or City:

Astronomy

Jul. 22, 2019 Rise Set
Actual Time 6:42 AM EDT 8:45 PM EDT
Civil Twilight 6:14 AM EDT 9:13 PM EDT
Nautical Twilight 5:40 AM EDT 9:47 PM EDT
Astronomical Twilight 5:04 AM EDT 10:24 PM EDT
Moon No Moon Rise 11:45 AM EDT
Length of Visible Light 14h 58m
Length of Day
14h 02m
Waning Gibbous, 72% of the Moon is Illuminated
Jul 22
Waning Gibbous
Jul 24
Last Quarter
Jul 31
New
Aug 7
First Quarter
Aug 15
Full

Hourly Weather History & Observations

Time (EDT) Temp. Heat Index Dew Point Humidity Pressure Visibility Wind Dir Wind Speed Gust Speed Precip Events Conditions
12:53 AM 75.9 °F - 70.0 °F 82% 30.01 in 10.0 mi Calm Calm - N/A   Scattered Clouds
1:53 AM 78.1 °F - 70.0 °F 76% 29.99 in 10.0 mi SSW 3.5 mph - N/A   Clear
2:53 AM 75.0 °F - 70.0 °F 84% 29.98 in 10.0 mi Calm Calm - N/A   Clear
3:53 AM 75.0 °F - 70.0 °F 84% 29.97 in 10.0 mi WSW 3.5 mph - N/A   Clear
4:53 AM 75.0 °F - 70.0 °F 84% 29.97 in 10.0 mi South 5.8 mph - N/A   Clear
5:53 AM 73.9 °F - 70.0 °F 87% 29.98 in 10.0 mi SSW 3.5 mph - N/A   Clear
6:53 AM 73.0 °F - 70.0 °F 90% 30.01 in 10.0 mi Variable 3.5 mph - N/A   Scattered Clouds
7:53 AM 73.9 °F - 70.0 °F 87% 30.03 in 10.0 mi SW 3.5 mph - N/A   Clear
8:53 AM 77.0 °F - 71.1 °F 82% 30.03 in 10.0 mi South 3.5 mph - N/A   Scattered Clouds
9:53 AM 80.1 °F 83.6 °F 71.1 °F 74% 30.03 in 10.0 mi West 8.1 mph - N/A   Mostly Cloudy
10:53 AM 84.0 °F 88.4 °F 70.0 °F 63% 30.02 in 10.0 mi SW 8.1 mph - N/A   Partly Cloudy
11:53 AM 84.0 °F 87.0 °F 68.0 °F 58% 30.01 in 10.0 mi SW 9.2 mph - N/A   Scattered Clouds
12:53 PM 87.1 °F 90.6 °F 68.0 °F 53% 29.99 in 10.0 mi South 10.4 mph - N/A   Partly Cloudy
1:53 PM 87.1 °F 90.6 °F 68.0 °F 53% 29.97 in 10.0 mi West 9.2 mph - N/A   Mostly Cloudy
2:53 PM 90.0 °F 92.4 °F 66.0 °F 45% 29.96 in 10.0 mi SSW 11.5 mph - N/A   Clear
3:53 PM 91.0 °F 93.8 °F 66.0 °F 44% 29.93 in 10.0 mi South 11.5 mph 18.4 mph N/A   Clear
4:53 PM 90.0 °F 91.7 °F 64.9 °F 43% 29.91 in 10.0 mi SW 9.2 mph 19.6 mph N/A   Partly Cloudy
5:53 PM 90.0 °F 92.4 °F 66.0 °F 45% 29.90 in 10.0 mi SW 12.7 mph 18.4 mph N/A   Scattered Clouds
6:53 PM 89.1 °F 91.3 °F 66.0 °F 46% 29.89 in 10.0 mi West 10.4 mph - N/A   Clear
7:53 PM 87.1 °F 89.2 °F 66.0 °F 49% 29.90 in 10.0 mi SW 9.2 mph - N/A   Clear
8:53 PM 84.9 °F 87.6 °F 66.9 °F 55% 29.90 in 10.0 mi South 5.8 mph - N/A   Clear
9:53 PM 82.9 °F 85.4 °F 66.9 °F 58% 29.91 in 10.0 mi SW 3.5 mph - N/A   Clear
11:53 PM 80.1 °F 82.9 °F 69.1 °F 69% 29.92 in 10.0 mi Calm Calm - N/A   Scattered Clouds